ARIANE 2 DEB, 40783

Orbit data source: Space-Track

ARIANE 2 DEB, 40783 is space debris in HEO originally from a launch on Fri, 27 Jan 1989 UTC launched from the French Guiana (FRGUI). Debris objects in space refer to the collection of defunct objects orbiting the Earth. Examples of debris include non-operational satellites, rocket bodies, and fragments generated from explosions, collisions, or faulty payload assembly.

Loading next visibility...
Identifier
40783, 1989-006CC
Orbit
HEO
Country
Flag of FRFR
Related business
Manufacturer
EADS/LV
Mission
Spacecraft
Bus & Motor
Unknown
Mass
Unknown
Launch date (UTC)
1989-01-27 (37 years ago)
Launch vehicle
Unknown
Launch site
French Guiana (FRGUI)
Object type
Payload
Rocket body
Debris
Shape & HBR
Unknown
Radar Cross Section
Medium (>0.1 m² and <1 m²)

Expand to show TLE details & history
Last TLE update: 1 year ago

TLE from 1 year ago
0 ARIANE 2 DEB
1 40783U 89006CC  24242.65588814 -.00000098  00000-0  97751-2 0  9993
2 40783   6.6817 250.9329 7040634 122.7025 348.3225  2.24621294 32278
Epoch: 2024-08-29T15:44Z
TLE epoch observation values (Epoch: 2024-08-29T15:44:28.735Z)
Latitude
5.1232°
Longitude
86.17737°
Altitude
3,890.424 km
Speed
7.839 km/s
True Right ascension
20h 02m 32s
True Declination
5° 06' 07"
Sunlit
Object was in daylight at epoch
Visualization orbit readout
Latitude
Unknown
Longitude
Unknown
Altitude
Unknown
Speed
Unknown
Apparent Right ascension
Unknown
Apparent Declination
Unknown
Sunlit
N/A
Visualization observer readout
Local Sidereal Time
11:46:50
Azimuth
Unknown
Elevation
Unknown
Doppler factor
Unknown
Orbital elements
Apogee altitude
35,598.423 km
Perigee altitude
911.733 km
Semi-major axis
24,633.215 km
Eccentricity
0.70406
Inclination
6.6817°
RAAN
250.9329°
Arg. of periapsis
122.7025°
True anomaly
286.51446°
Mean anomaly
348.3225°
Eccentric anomaly
325.4375°
Mean motion
0.56139 °/min
Orbital period
641.27 mins
BSTAR
0.0097751
Loading maneuver chart data...
Computing Atmospheric mass density...
Loading historical data...
Loading historical data...
Loading historical data...
Loading historical data...
Loading historical data...
Loading historical data...
Loading historical data...

Documentation

Showing up to 5 results
|